EW3309 Weather Reports


Display with metric or nautical units.
time (UTC)temp
F
wind
direction
speed
MPH
gust
MPH
rain 1hr
in
rain 24hr
in
rain mn
in
humidity
%
barometer
mb
20260902184502 84 213 0.0 0.0 0.00 0.00 0.00 43 1014.4
20260902183058 83 231 0.0 0.0 0.00 0.00 0.00 48 1014.5
20260902181608 81 252 0.0 0.0 0.00 0.00 0.00 52 1014.7
20260902180049 78 225 0.0 0.0 0.00 0.00 0.00 57 1014.7
20260902174545 75 215 0.0 0.0 0.00 0.00 0.00 64 1014.9
20260902173042 72 171 0.0 0.0 0.00 0.00 0.00 68 1014.8
20260902171558 70 170 0.0 0.0 0.00 0.00 0.00 72 1014.8
20260902170033 69 202 0.0 0.0 0.00 0.00 0.00 79 1014.8
20260902164530 67 242 0.0 0.0 0.00 0.00 0.00 85 1014.8
20260902163025 66 242 0.0 0.0 0.00 0.00 0.00 87 1014.9
20260902161529 65 274 0.0 0.0 0.00 0.00 0.00 88 1014.9
20260902160019 65 333 0.0 0.0 0.00 0.00 0.00 89 1015.1
20260902154514 65 333 0.0 0.0 0.00 0.00 0.00 89 1015.0
20260902153011 65 333 0.0 0.0 0.00 0.00 0.00 90 1015.0
20260902151509 64 360 0.0 0.0 0.00 0.00 0.00 90 1015.0
20260902150007 64 355 0.0 0.0 0.00 0.00 0.00 91 1015.1
20260902144501 64 360 0.0 0.0 0.00 0.00 0.00 91 1015.0
20260902143103 63 9 0.0 0.0 0.00 0.00 0.00 90 1015.0
20260902141657 63 9 0.0 0.0 0.00 0.00 0.00 90 1014.9
20260902140057 63 9 0.0 0.0 0.00 0.00 0.00 90 1014.8
20260902134607 63 5 0.0 0.0 0.00 0.00 0.00 90 1014.6
20260902133049 63 5 0.0 0.0 0.00 0.00 0.00 89 1014.4
20260902131550 63 355 0.0 0.0 0.00 0.00 0.00 89 1014.2
20260902130048 64 126 0.0 0.0 0.00 0.00 0.00 89 1014.0
20260902124547 64 127 0.0 0.0 0.00 0.00 0.00 90 1013.9
20260902123049 64 127 0.0 0.0 0.00 0.00 0.00 90 1014.0
20260902121546 64 127 0.0 0.0 0.00 0.00 0.00 90 1014.1
20260902120052 64 127 0.0 0.0 0.00 0.00 0.00 90 1014.0
20260902114547 64 128 0.0 0.0 0.00 0.00 0.00 90 1014.1
20260902113043 64 102 0.0 0.0 0.00 0.00 0.00 91 1014.0
20260902111542 64 103 0.0 0.0 0.00 0.00 0.00 91 1014.0
20260902104541 63 319 0.0 0.0 0.00 0.00 0.00 90 1014.2
20260902103037 62 320 0.0 0.0 0.00 0.00 0.00 90 1014.3
20260902101536 63 320 0.0 0.0 0.00 0.00 0.00 89 1014.5
20260902100036 63 320 0.0 0.0 0.00 0.00 0.00 90 1014.5
20260902094537 62 320 0.0 0.0 0.00 0.00 0.00 89 1014.5
20260902093038 62 320 0.0 0.0 0.00 0.00 0.00 88 1014.5
20260902091534 63 320 0.0 0.0 0.00 0.00 0.00 88 1014.6
20260902090033 63 320 0.0 0.0 0.00 0.00 0.00 88 1014.7
20260902084532 62 320 0.0 0.0 0.00 0.00 0.00 87 1014.8
20260902083029 62 319 0.0 0.0 0.00 0.00 0.00 86 1014.9
20260902081529 63 319 0.0 0.0 0.00 0.00 0.00 86 1014.8
20260902080028 63 319 0.0 0.0 0.00 0.00 0.00 86 1014.8
20260902074525 63 319 0.0 0.0 0.00 0.00 0.00 86 1014.8
20260902073023 64 319 0.0 0.0 0.00 0.00 0.00 86 1014.8
20260902071521 64 319 0.0 0.0 0.00 0.00 0.00 85 1014.6
20260902070018 64 319 0.0 0.0 0.00 0.00 0.00 85 1014.4
20260902064523 65 319 0.0 0.0 0.00 0.00 0.00 83 1014.4
20260902063019 65 319 0.0 0.0 0.00 0.00 0.00 84 1014.4
20260902061519 66 319 0.0 0.0 0.00 0.00 0.00 84 1014.2
20260902060013 66 319 0.0 0.0 0.00 0.00 0.00 83 1014.1
20260902054516 66 319 0.0 0.0 0.00 0.00 0.00 82 1014.1
20260902053012 66 319 0.0 0.0 0.00 0.00 0.00 81 1014.1
20260902051513 67 319 0.0 0.0 0.00 0.00 0.00 79 1014.2
20260902050011 67 319 0.0 0.0 0.00 0.00 0.00 78 1014.1
20260902044513 68 319 0.0 0.0 0.00 0.00 0.00 77 1014.0
20260902043008 68 319 0.0 0.0 0.00 0.00 0.00 77 1013.8
20260902041507 68 319 0.0 0.0 0.00 0.00 0.00 76 1013.6
20260902040010 69 325 0.0 0.0 0.00 0.00 0.00 75 1013.4
20260902034506 69 325 0.0 0.0 0.00 0.00 0.00 73 1013.1
20260902033007 70 325 0.0 0.0 0.00 0.00 0.00 73 1012.8
20260902031505 71 326 0.0 0.0 0.00 0.00 0.00 73 1012.6
20260902030005 71 294 0.0 0.0 0.00 0.00 0.00 73 1012.5
20260902024505 72 288 0.0 0.0 0.00 0.00 0.00 71 1012.5
20260902023005 74 245 0.0 0.0 0.00 0.00 0.00 68 1012.3
20260902021505 76 259 0.0 0.0 0.00 0.00 0.00 65 1012.2
20260902020002 77 299 0.0 0.0 0.00 0.00 0.00 60 1012.2
20260902014501 78 295 0.0 0.0 0.00 0.00 0.00 57 1012.1
20260902013101 79 284 0.0 0.0 0.00 0.00 0.00 55 1012.0
20260902011600 80 300 0.0 0.0 0.00 0.00 0.00 56 1012.0
20260902010100 81 270 0.0 0.0 0.00 0.00 0.00 54 1012.1
20260902004601 81 294 0.0 0.0 0.00 0.00 0.00 53 1012.2
20260902003132 82 286 0.0 0.0 0.00 0.00 0.00 51 1012.1
20260902001556 83 321 0.0 0.0 0.00 0.00 0.00 50 1012.1
20260902000058 83 263 0.0 0.0 0.00 0.00 0.00 48 1012.2
20260901234553 84 273 0.0 0.0 0.00 0.00 0.00 47 1012.2
20260901233053 85 300 0.0 0.0 0.00 0.00 0.00 47 1012.3
20260901231600 85 270 0.0 0.0 0.00 0.00 0.00 44 1012.2
20260901230052 85 276 0.0 0.0 0.00 0.00 0.00 44 1012.3
20260901224552 85 281 0.0 0.0 0.00 0.00 0.00 43 1012.4
20260901223050 86 259 0.0 0.0 0.00 0.00 0.00 41 1012.4
20260901221549 86 277 0.0 0.0 0.00 0.00 0.00 43 1012.4
20260901220048 86 314 0.0 0.0 0.00 0.00 0.00 41 1012.4
20260901214545 87 313 0.0 0.0 0.00 0.00 0.00 42 1012.6
20260901213043 88 263 0.0 0.0 0.00 0.00 0.00 41 1012.5
20260901211541 88 309 0.0 0.0 0.00 0.00 0.00 40 1012.5
20260901210047 88 300 0.0 0.0 0.00 0.00 0.00 42 1012.7
20260901204537 89 261 0.0 0.0 0.00 0.00 0.00 42 1012.6
20260901203041 89 265 0.0 0.0 0.00 0.00 0.00 42 1012.6
20260901201536 89 284 0.0 0.0 0.00 0.00 0.00 42 1012.7
20260901200034 90 258 0.0 0.0 0.00 0.00 0.00 42 1012.8
20260901194533 89 267 0.0 0.0 0.00 0.00 0.00 39 1013.0
20260901193031 89 289 0.0 0.0 0.00 0.00 0.00 41 1013.0
20260901191535 88 311 0.0 0.0 0.00 0.00 0.00 39 1013.3
20260901190026 88 295 0.0 0.0 0.00 0.00 0.00 42 1013.3